Weather in Samkovo

Russia / Perm Krai     58°56′27″N   54°04′54″E
temp.,
°C
wind,
m/s
gust,
m/s
humid.,
%
clouds,
%
prec.,
mm/h
press.,
hPa
HPBL,
m
1 august, sun
sun123:00+17wsw399831 1.4 1002442
02:00+15wsw269925 0.0 1003146
05:00+14sw2109878 0.1 1004211
08:00+16sw39938 0.1 1004308
11:00+17wsw389131 0.4 1005411
14:00+23w694484 0.1 10052345
17:00+21w495399 0.1 10071801
20:00+18wnw49751 0.1 1009715
2 august, mon
mon223:00+13w2396100 0.2 101054
02:00+12w2296100 0.0 101121
05:00+12wsw2593100 0.0 101296
08:00+17wsw247773 0.0 1012174
11:00+17ssw2681100 0.0 1012178
14:00+24wsw485328 0.1 10111594
17:00+22wsw4876100 1.1 1011758
20:00+19w2892100 0.8 1011232
3 august, tue
tue323:00+17wsw229587 1.1 101135
02:00+16ssw119643 0.3 101111
05:00+15s1196100 0.3 101111
08:00+18sse1294100 0.0 1011104
11:00+18sse2496100 0.2 1011126
14:00+26sse465946 0.0 1010842
17:00+27sse495627 0.0 1009749
20:00+25sse310655 0.0 1008373
4 august, wed
wed423:00+20ssw298467 0.0 1008173
02:00+17w229287 1.4 100840
05:00+17ssw249497 1.8 100979
08:00+20ssw259171 0.0 1009147
11:00+24sw3666100 0.0 1009524
14:00+24sw276990 0.0 1008447
17:00+23w478282 0.7 1009600
20:00+20wsw268968 0.5 1009246
5 august, thu
thu523:00+18wnw299613 1.2 1009287
02:00+15w24988 0.0 101084
05:00+14w279810 0.0 1011159
08:00+16w38920 0.0 1011282
11:00+21wnw46620 0.1 1012983
14:00+22nw455421 0.3 10131710
17:00+22nnw455598 0.6 10131658
20:00+17n25797 0.4 1013139